[[{"header":{"parameterUnit":"m.s-1","parameterCategory":1,"la1":30.2991,"la2":30.254,"lo1":-89.0895,"lo2":-89.0444,"dy":0.0017,"dx":0.0017,"nx":28,"ny":28,"refTime":"2025-03-11T21:00:00:Z","depth":0,"parameterNumber":2,"parameterNumberName":"U-component_of_WINDS"},"data":[0,0,0,0,0,0,0,0,0,0,0,0,0,0,0,0,0,0,0,0,0,0,0,0,0,0,0,0,0,0,0,0,0,0,0,0,0,0,0,0,0,0,0,0,0,0,0,0,0,0,0,0,0,0,0,0,0,0,-0.4508,-0.4507,0,-0.4435,-0.4434,-0.4434,-0.4396,-0.4396,-0.4396,-0.4396,-0.4321,-0.432,-0.4318,0,0,0,0,0,0,0,0,0,0,0,0,0,-0.4614,-0.4612,-0.4508,-0.4507,-0.4506,-0.4435,-0.4434,-0.4433,-0.4396,-0.4396,-0.4396,-0.4396,-0.4322,-0.432,-0.4318,0,0,0,0,0,0,0,0,0,0,0,0,0,-0.4557,-0.4611,-0.4508,-0.4479,-0.4475,-0.4436,-0.4434,-0.4433,-0.4396,-0.4396,-0.4396,-0.4396,-0.4323,-0.432,-0.4317,-0.4301,0,0,-0.4308,-0.4307,0,0,0,0,0,0,0,0,-0.456,-0.4553,-0.4484,-0.4481,-0.4477,-0.4424,-0.4444,-0.4389,-0.4396,-0.4426,-0.4396,-0.4396,-0.4356,-0.435,-0.4337,-0.4298,-0.4294,-0.4308,-0.4306,-0.4305,-0.4304,0,0,0,0,0,0,0,-0.4564,-0.4556,-0.4479,-0.4483,-0.4479,-0.4469,-0.4461,-0.4434,-0.4392,-0.4423,-0.442,-0.4412,-0.4354,-0.434,-0.4335,-0.4293,-0.4308,-0.4306,-0.4304,-0.4303,-0.4236,-0.4236,0,0,0,0,0,0,-0.4573,-0.456,-0.4481,-0.4477,-0.4519,-0.4467,-0.4458,-0.4441,-0.4392,-0.4385,-0.4413,-0.4411,-0.4345,-0.4338,-0.4332,-0.4309,-0.4305,-0.4302,-0.4301,-0.4236,-0.4236,-0.4236,0,0,0,0,0,0,-0.4575,-0.4566,-0.4484,-0.4517,-0.4506,-0.4466,-0.4447,-0.444,-0.4426,-0.4384,-0.4377,-0.4406,-0.4344,-0.4336,-0.4309,-0.4306,-0.4301,-0.4299,-0.4236,-0.4236,-0.4236,-0.4264,0,0,0,0,0,0,-0.4579,-0.4567,-0.4561,-0.4518,-0.4505,-0.4463,-0.4447,-0.4439,-0.4421,-0.4418,-0.4376,-0.4369,-0.4344,-0.4313,-0.4306,-0.4302,-0.4296,-0.4236,-0.4236,-0.4236,-0.4263,-0.4265,-0.4266,0,0,0,0,0,-0.4582,-0.4572,-0.4561,-0.4552,-0.4496,-0.4463,-0.4455,-0.4426,-0.4421,-0.4414,-0.4387,-0.437,-0.4308,-0.4311,-0.4302,-0.4297,-0.4236,-0.4236,-0.4236,-0.4262,-0.4265,-0.4266,0,0,0,0,0,0,-0.4616,-0.4566,-0.4553,-0.4528,-0.45,-0.4456,-0.4447,-0.443,-0.4403,-0.4401,-0.4367,-0.4357,-0.4333,-0.4313,-0.4317,-0.4279,-0.427,-0.4268,-0.4293,-0.4295,-0.4296,-0.4302,-0.4294,0,0,0,0,0,-0.4621,-0.4598,-0.4555,-0.4537,-0.4524,-0.4488,-0.4472,-0.4452,-0.4422,-0.441,-0.4381,-0.4352,-0.4326,-0.4309,-0.4283,-0.426,-0.425,-0.4252,-0.4254,-0.4256,-0.4254,-0.424,-0.424,-0.4236,-0.4236,-0.4236,0,0,-0.463,-0.46,-0.4587,-0.4543,-0.4519,-0.4496,-0.4478,-0.4455,-0.4437,-0.4406,-0.4378,-0.4356,-0.4322,-0.4296,-0.4284,-0.4278,-0.4253,-0.4256,-0.4257,-0.4255,-0.424,-0.424,-0.4241,-0.4236,-0.4236,-0.4236,0,0,-0.4635,-0.461,-0.4592,-0.4568,-0.4531,-0.4507,-0.4503,-0.4462,-0.4446,-0.4418,-0.4394,-0.4372,-0.4328,-0.4304,-0.4286,-0.4281,-0.4264,-0.4274,-0.4282,-0.4269,-0.4269,-0.4269,-0.4267,-0.4266,-0.4273,-0.4273,-0.4273,0,-0.4651,-0.4615,-0.4585,-0.4562,-0.4544,-0.4514,-0.4496,-0.4474,-0.4431,-0.4418,-0.4413,-0.4356,-0.4331,-0.4299,-0.4298,-0.4285,-0.4278,-0.4278,-0.4271,-0.4271,-0.4271,-0.4268,-0.4268,-0.4274,-0.4274,-0.4274,-0.4274,0,-0.4637,-0.4612,-0.4602,-0.4561,-0.4541,-0.4521,-0.4487,-0.447,-0.4452,-0.4429,-0.44,-0.4368,-0.4335,-0.4326,-0.4308,-0.4291,-0.4289,-0.4278,-0.4269,-0.4273,-0.427,-0.4269,-0.4276,-0.4275,-0.4275,-0.4275,0,0,-0.4661,-0.4603,-0.4599,-0.458,-0.4537,-0.4518,-0.4496,-0.4463,-0.4449,-0.442,-0.4401,-0.4364,-0.4353,-0.4333,-0.4312,-0.43,-0.4297,-0.429,-0.4289,-0.4292,-0.4276,-0.4285,-0.4284,-0.4286,-0.4286,-0.4286,-0.4279,0,-0.4659,-0.4619,-0.459,-0.4561,-0.4537,-0.4509,-0.449,-0.4462,-0.4439,-0.4416,-0.4391,-0.4365,-0.4353,-0.4341,-0.4328,-0.4301,-0.4294,-0.4301,-0.4267,-0.4266,-0.4277,-0.4283,-0.4291,-0.4287,-0.4278,-0.4278,-0.4277,0,-0.4652,-0.4624,-0.4592,-0.4551,-0.454,-0.4524,-0.4491,-0.4469,-0.4436,-0.442,-0.4397,-0.4376,-0.4351,-0.4344,-0.431,-0.4315,-0.43,-0.4284,-0.4283,-0.4279,-0.4272,-0.4278,-0.4285,-0.4284,-0.4275,-0.4276,-0.4276,0,-0.4673,-0.4626,-0.4601,-0.4585,-0.4537,-0.4526,-0.4506,-0.4473,-0.4454,-0.4425,-0.4413,-0.4382,-0.4365,-0.4341,-0.4312,-0.431,-0.428,-0.4271,-0.4266,-0.4267,-0.4261,-0.4261,-0.4265,-0.4252,-0.4252,-0.4252,-0.4252,0,-0.4674,-0.4655,-0.4609,-0.4594,-0.4572,-0.4539,-0.4519,-0.4496,-0.4466,-0.4446,-0.4419,-0.4401,-0.4363,-0.4339,-0.4316,-0.4291,-0.4283,-0.427,-0.4264,-0.4272,-0.4274,-0.4261,-0.4261,-0.4251,-0.4251,-0.4252,-0.4252,0,-0.4693,-0.4661,-0.4632,-0.4588,-0.4577,-0.4563,-0.4526,-0.4509,-0.4485,-0.4459,-0.4451,-0.4413,-0.4384,-0.4352,-0.4313,-0.4297,-0.4273,-0.4264,-0.4284,-0.428,-0.4277,-0.4278,-0.4272,-0.427,-0.4259,-0.4259,-0.4259,0,-0.4695,-0.468,-0.4635,-0.4619,-0.4599,-0.4574,-0.4555,-0.4522,-0.4504,-0.4465,-0.4453,-0.4422,-0.4395,-0.435,-0.4318,-0.4288,-0.4278,-0.4278,-0.4273,-0.4282,-0.4277,-0.4279,-0.4277,-0.428,-0.428,-0.428,-0.4281,0,-0.4703,-0.4688,-0.4662,-0.463,-0.4608,-0.4581,-0.4553,-0.4542,-0.4504,-0.4484,-0.4454,-0.4433,-0.4392,-0.4361,-0.4326,-0.4305,-0.4286,-0.4282,-0.428,-0.4288,-0.4299,-0.4292,-0.4287,-0.4283,-0.4282,-0.4282,-0.4282,-0.4282,-0.4713,-0.4698,-0.4664,-0.4635,-0.4611,-0.4585,-0.4568,-0.4541,-0.4515,-0.4479,-0.4462,-0.4431,-0.4398,-0.435,-0.4329,-0.4304,-0.4299,-0.4295,-0.4294,-0.4293,-0.4295,-0.4303,-0.4298,-0.4298,-0.4298,-0.4298,-0.4298,0,-0.4719,-0.4695,-0.4669,-0.4631,-0.4609,-0.4593,-0.4561,-0.4543,-0.4517,-0.4488,-0.4462,-0.4427,-0.4396,-0.4363,-0.433,-0.4317,-0.4308,-0.431,-0.431,-0.4305,-0.4302,-0.4308,-0.4318,-0.4318,-0.4318,-0.4318,-0.4318,-0.4318,-0.4719,-0.4693,-0.4674,-0.4635,-0.4611,-0.4581,-0.4565,-0.4541,-0.4517,-0.4479,-0.4454,-0.4432,-0.4401,-0.4366,-0.4337,-0.4328,-0.4317,-0.4322,-0.431,-0.4307,-0.4306,-0.4304,-0.4309,-0.432,-0.432,-0.4315,-0.4315,-0.4315]},{"header":{"parameterUnit":"m.s-1","parameterCategory":1,"la1":30.2991,"la2":30.254,"lo1":-89.0895,"lo2":-89.0444,"dy":0.0017,"dx":0.0017,"nx":28,"ny":28,"refTime":"2025-03-11T21:00:00:Z","depth":0,"parameterNumber":3,"parameterNumberName":"V-component_of_WINDS"},"data":[0,0,0,0,0,0,0,0,0,0,0,0,0,0,0,0,0,0,0,0,0,0,0,0,0,0,0,0,0,0,0,0,0,0,0,0,0,0,0,0,0,0,0,0,0,0,0,0,0,0,0,0,0,0,0,0,0,0,4.2043,4.2045,0,4.2215,4.2216,4.2218,4.2242,4.224,4.2239,4.2237,4.2413,4.2419,4.2425,0,0,0,0,0,0,0,0,0,0,0,0,0,4.1735,4.1741,4.2042,4.2045,4.2047,4.2214,4.2217,4.2219,4.2242,4.224,4.2238,4.2237,4.2411,4.2418,4.2425,0,0,0,0,0,0,0,0,0,0,0,0,0,4.1884,4.1743,4.2042,4.2079,4.2084,4.2214,4.2217,4.222,4.2243,4.224,4.2238,4.2236,4.2408,4.2417,4.2426,4.2532,0,0,4.2455,4.2459,0,0,0,0,0,0,0,0,4.1876,4.1895,4.2071,4.2076,4.2082,4.2204,4.2173,4.2324,4.2243,4.2182,4.2237,4.2234,4.2345,4.236,4.2397,4.254,4.2548,4.2456,4.2461,4.2465,4.2468,0,0,0,0,0,0,0,4.1865,4.1888,4.2111,4.2074,4.208,4.2087,4.2105,4.2201,4.2275,4.2187,4.219,4.221,4.2348,4.2388,4.2401,4.255,4.2455,4.2464,4.2469,4.2473,4.2791,4.2794,0,0,0,0,0,0,4.1848,4.1879,4.2105,4.2116,4.1971,4.2094,4.2115,4.2168,4.2274,4.2288,4.2211,4.221,4.2374,4.2391,4.2408,4.2541,4.2465,4.2474,4.2479,4.2788,4.2792,4.2795,0,0,0,0,0,0,4.1842,4.1868,4.2098,4.1998,4.2028,4.2102,4.2161,4.2172,4.2213,4.2292,4.2306,4.2239,4.2372,4.2395,4.2502,4.2547,4.2478,4.2486,4.2785,4.2789,4.2793,4.2805,0,0,0,0,0,0,4.1833,4.1866,4.1906,4.1999,4.2033,4.2189,4.2164,4.2177,4.2229,4.2228,4.2322,4.2335,4.2372,4.2488,4.2511,4.2558,4.2494,4.2781,4.2787,4.2792,4.2801,4.2809,4.2816,0,0,0,0,0,4.1822,4.1902,4.1908,4.1935,4.2086,4.2191,4.2211,4.2252,4.2232,4.2274,4.2326,4.2332,4.2538,4.2498,4.2525,4.2576,4.2778,4.2785,4.2791,4.2798,4.2808,4.2816,0,0,0,0,0,0,4.1812,4.1915,4.1923,4.2036,4.2105,4.2195,4.2249,4.2261,4.2337,4.2334,4.2382,4.2403,4.2508,4.2552,4.2506,4.2684,4.2656,4.2668,4.2652,4.2662,4.267,4.2658,4.2501,0,0,0,0,0,4.1823,4.1901,4.1986,4.2078,4.2112,4.2175,4.2222,4.2248,4.2321,4.2351,4.241,4.2481,4.2562,4.2614,4.2693,4.2807,4.2829,4.2855,4.2863,4.2869,4.2879,4.2945,4.2959,4.2816,4.2816,4.2816,0,0,4.1847,4.1913,4.1959,4.2077,4.2134,4.2214,4.2199,4.2283,4.2343,4.2364,4.2469,4.2515,4.2597,4.2709,4.2761,4.2749,4.2923,4.2877,4.2881,4.2889,4.2953,4.2967,4.2979,4.2821,4.282,4.2819,0,0,4.1932,4.1988,4.2072,4.2129,4.2215,4.2257,4.2277,4.2366,4.2398,4.2504,4.2521,4.2593,4.2731,4.279,4.2837,4.2946,4.2955,4.297,4.301,4.3074,4.3086,4.3096,4.3137,4.315,4.2979,4.2979,4.2979,0,4.1951,4.2072,4.2113,4.2198,4.2251,4.2273,4.2359,4.2412,4.2519,4.2555,4.254,4.2715,4.2771,4.2898,4.2925,4.2962,4.2988,4.296,4.308,4.3091,4.3101,4.3141,4.3156,4.2981,4.2981,4.298,4.298,0,4.2092,4.2175,4.2232,4.2336,4.2395,4.248,4.2535,4.2589,4.261,4.2653,4.2762,4.2831,4.2925,4.2957,4.2977,4.3087,4.3077,4.3071,4.3044,4.3116,4.3154,4.3169,4.2983,4.2982,4.2982,4.2981,0,0,4.2176,4.2303,4.2323,4.2372,4.2469,4.2534,4.262,4.2713,4.276,4.2832,4.2907,4.3023,4.3019,4.3073,4.31,4.3156,4.324,4.3143,4.3146,4.3161,4.3368,4.3374,4.3391,4.3246,4.3249,4.3252,4.3362,0,4.2274,4.2428,4.2469,4.26,4.2679,4.2702,4.2777,4.2845,4.2888,4.2961,4.3008,4.3091,4.3077,4.311,4.3166,4.3218,4.3283,4.321,4.3318,4.3321,4.3299,4.3411,4.3417,4.3518,4.3377,4.338,4.3381,0,4.2409,4.2486,4.2625,4.2714,4.2749,4.2816,4.2905,4.2974,4.3052,4.3079,4.314,4.3163,4.3254,4.3221,4.3349,4.3298,4.3345,4.3377,4.3382,4.3395,4.3357,4.3429,4.3551,4.3567,4.3405,4.3403,4.3401,0,4.2459,4.2598,4.27,4.274,4.2845,4.2892,4.2938,4.3014,4.3068,4.3145,4.3181,4.3267,4.3315,4.3382,4.3428,4.3399,4.3553,4.3523,4.3579,4.3578,4.3612,4.361,4.3745,4.3638,4.3637,4.3637,4.3637,0,4.2565,4.2651,4.2724,4.2787,4.2884,4.293,4.3024,4.3071,4.3138,4.3211,4.3235,4.3303,4.3358,4.3434,4.347,4.3571,4.3592,4.3618,4.3627,4.3617,4.3614,4.365,4.3645,4.3641,4.364,4.364,4.3639,0,4.2639,4.2691,4.2805,4.2896,4.292,4.2988,4.3066,4.3128,4.3171,4.3264,4.3288,4.3356,4.3447,4.3499,4.3612,4.3637,4.375,4.3755,4.3725,4.3729,4.3784,4.3779,4.3948,4.3974,4.3847,4.3848,4.3849,0,4.2705,4.2771,4.2869,4.292,4.2967,4.3048,4.3104,4.3151,4.3208,4.3302,4.3354,4.3446,4.3523,4.3666,4.3726,4.3814,4.3822,4.3876,4.3836,4.3825,4.3826,4.3823,4.3831,4.3883,4.3884,4.3885,4.3886,0,4.2816,4.2839,4.2918,4.3007,4.3072,4.3144,4.3215,4.3255,4.3315,4.3377,4.3471,4.353,4.3647,4.3739,4.3832,4.3879,4.3894,4.3898,4.3916,4.3908,4.3889,4.3903,4.3746,4.3894,4.3893,4.3893,4.3892,4.3892,4.289,4.2951,4.303,4.3117,4.3176,4.3242,4.3306,4.3358,4.3437,4.3536,4.3559,4.3658,4.3736,4.3862,4.3912,4.3991,4.3981,4.4007,4.4014,4.402,4.4023,4.3874,4.4007,4.4007,4.4007,4.4007,4.4007,0,4.3005,4.3057,4.3137,4.3237,4.3306,4.3312,4.3392,4.345,4.3537,4.3608,4.3683,4.3791,4.3881,4.3948,4.4039,4.409,4.4099,4.4112,4.411,4.4122,4.4025,4.4001,4.4104,4.4104,4.4104,4.4104,4.4104,4.4104,4.3073,4.3177,4.321,4.3344,4.3395,4.3493,4.3538,4.36,4.3658,4.3778,4.3852,4.3895,4.3966,4.4063,4.4146,4.4163,4.4197,4.4211,4.4229,4.4138,4.4128,4.4118,4.4096,4.4217,4.4217,4.432,4.4321,4.4321]}]]